Simultaneous Nadir Overpasses (SNOs) Predictions

Prediction of SNOs between NOAA-19 and METOP-C Satellite Orbit:

Table of predicted SNOs for the next 14.0 days since TLE Epoch: 4/26/2019
Index Date (NOAA-19) Time (NOAA-19) Lat,Lon (NOAA-19) SZA (NOAA-19 ) Date (METOP-C) Time (METOP-C) Lat,Lon (METOP-C) SZA (METOP-C ) Distance(km) Time Diff (sec)
1 04/26/2019 22:15:56 79.13,-138.65 65.86 04/26/2019 22:15:37 79.14,-138.67 65.87 1.25 19
2 04/26/2019 23:06:51 -79.14, 28.52 114.15 04/26/2019 23:06:18 -79.14, 28.67 114.15 3.18 33
3 04/26/2019 23:57:57 79.13,-164.18 65.84 04/26/2019 23:56:59 79.13,-164.10 65.83 1.77 58
4 04/27/2019 00:48:51 -79.11, 3.25 114.18 04/27/2019 00:47:40 -79.13, 3.23 114.19 1.57 71
5 05/07/2019 17:33:07 -79.33, 110.70 117.22 05/07/2019 17:34:17 -79.29, 112.75 117.14 42.71 70
6 05/07/2019 18:24:07 79.18, -80.73 62.70 05/07/2019 18:25:00 79.18, -80.71 62.71 0.38 53
7 05/07/2019 19:15:03 -79.19, 86.52 117.32 05/07/2019 19:15:42 -79.17, 86.54 117.32 1.64 39
8 05/07/2019 20:06:08 79.19,-106.26 62.68 05/07/2019 20:06:22 79.17,-106.15 62.67 3.19 14
9 05/07/2019 20:57:03 -79.16, 61.25 117.35 05/07/2019 20:57:04 -79.16, 61.11 117.36 2.99 1
10 05/07/2019 21:48:08 79.16,-131.53 62.65 05/07/2019 21:47:44 79.15,-131.59 62.63 1.33 24
11 05/07/2019 22:39:04 -79.16, 35.72 117.37 05/07/2019 22:38:26 -79.15, 35.67 117.39 2.07 38
12 05/07/2019 23:30:09 79.16,-157.07 62.63 05/07/2019 23:29:06 79.14,-157.02 62.60 2.70 63




NCC Satellite Simultaneous Nadir Overpasses (SNOs) Prediction Service
